Time,TemperatureF,DewpointF,PressureIn,WindDirection,WindDirectionDegrees,WindSpeedMPH,WindSpeedGustMPH,Humidity,HourlyPrecipIn,Conditions,Clouds,dailyrainin,SoftwareType,DateUTC
2013-04-21 00:11:00,42.8,39.5,30.16,ENE,67,0.0,-999.0,88,-99.99,,,0.00,Acu-Link.com,2013-04-21 04:11:00,
2013-04-21 00:26:00,42.8,39.8,30.17,NE,45,0.0,-999.0,89,-99.99,,,0.00,Acu-Link.com,2013-04-21 04:26:00,
2013-04-21 00:41:00,42.3,39.6,30.17,NE,45,0.0,-999.0,90,-99.99,,,0.00,Acu-Link.com,2013-04-21 04:41:00,
2013-04-21 00:56:00,41.5,39.1,30.17,East,90,0.0,-999.0,91,-99.99,,,0.00,Acu-Link.com,2013-04-21 04:56:00,
2013-04-21 01:11:00,41.2,39.1,30.17,North,0,0.0,-999.0,92,-99.99,,,0.00,Acu-Link.com,2013-04-21 05:11:00,
2013-04-21 01:26:00,40.8,38.7,30.17,WNW,292,0.0,-999.0,92,-99.99,,,0.00,Acu-Link.com,2013-04-21 05:26:00,
2013-04-21 01:41:00,40.3,38.4,30.17,East,90,0.0,-999.0,93,-99.99,,,0.00,Acu-Link.com,2013-04-21 05:41:00,
2013-04-21 01:57:00,40.1,38.5,30.17,ENE,67,0.0,-999.0,94,-99.99,,,0.00,Acu-Link.com,2013-04-21 05:57:00,
2013-04-21 02:12:00,39.9,38.3,30.17,ENE,67,0.0,-999.0,94,-99.99,,,0.00,Acu-Link.com,2013-04-21 06:12:00,
2013-04-21 02:27:00,39.4,37.8,30.17,ENE,67,0.0,-999.0,94,-99.99,,,0.00,Acu-Link.com,2013-04-21 06:27:00,
2013-04-21 02:42:00,39.2,37.6,30.17,NE,45,0.0,-999.0,94,-99.99,,,0.00,Acu-Link.com,2013-04-21 06:42:00,
2013-04-21 02:57:00,39.0,37.4,30.17,WSW,247,0.0,-999.0,94,-99.99,,,0.00,Acu-Link.com,2013-04-21 06:57:00,
2013-04-21 03:12:00,38.5,36.9,30.17,West,270,0.0,-999.0,94,-99.99,,,0.00,Acu-Link.com,2013-04-21 07:12:00,
2013-04-21 03:27:00,38.1,36.5,30.17,NE,45,0.0,-999.0,94,-99.99,,,0.00,Acu-Link.com,2013-04-21 07:27:00,
2013-04-21 03:42:00,37.9,36.3,30.17,West,270,0.0,-999.0,94,-99.99,,,0.00,Acu-Link.com,2013-04-21 07:42:00,
2013-04-21 03:57:00,37.6,36.0,30.18,NNW,337,0.0,-999.0,94,-99.99,,,0.00,Acu-Link.com,2013-04-21 07:57:00,
2013-04-21 04:13:00,37.4,35.8,30.18,West,270,0.0,-999.0,94,-99.99,,,0.00,Acu-Link.com,2013-04-21 08:13:00,
2013-04-21 04:28:00,37.2,35.9,30.18,NE,45,0.0,-999.0,95,-99.99,,,0.00,Acu-Link.com,2013-04-21 08:28:00,
2013-04-21 04:43:00,37.8,36.8,30.18,NW,315,0.0,-999.0,96,-99.99,,,0.00,Acu-Link.com,2013-04-21 08:43:00,
2013-04-21 04:58:00,37.8,36.8,30.19,ENE,67,1.7,-999.0,96,-99.99,,,0.00,Acu-Link.com,2013-04-21 08:58:00,
2013-04-21 05:13:00,37.8,37.0,30.20,NE,45,0.0,-999.0,97,-99.99,,,0.00,Acu-Link.com,2013-04-21 09:13:00,
2013-04-21 05:28:00,38.1,37.3,30.20,East,90,1.7,-999.0,97,-99.99,,,0.00,Acu-Link.com,2013-04-21 09:28:00,
2013-04-21 05:43:00,39.0,38.0,30.21,NE,45,0.0,-999.0,96,-99.99,,,0.00,Acu-Link.com,2013-04-21 09:43:00,
2013-04-21 05:58:00,39.4,37.8,30.21,NE,45,0.0,-999.0,94,-99.99,,,0.00,Acu-Link.com,2013-04-21 09:58:00,
2013-04-21 06:13:00,39.6,37.7,30.22,NE,45,0.0,-999.0,93,-99.99,,,0.00,Acu-Link.com,2013-04-21 10:13:00,
2013-04-21 06:29:00,39.9,37.5,30.23,East,90,1.1,-999.0,91,-99.99,,,0.00,Acu-Link.com,2013-04-21 10:29:00,
2013-04-21 06:44:00,39.9,37.5,30.24,NNW,337,0.0,-999.0,91,-99.99,,,0.00,Acu-Link.com,2013-04-21 10:44:00,
2013-04-21 06:59:00,39.7,37.3,30.24,WNW,292,0.0,-999.0,91,-99.99,,,0.00,Acu-Link.com,2013-04-21 10:59:00,
2013-04-21 07:14:00,40.5,37.5,30.26,ESE,112,2.2,-999.0,89,-99.99,,,0.00,Acu-Link.com,2013-04-21 11:14:00,
2013-04-21 07:29:00,43.7,38.9,30.26,East,90,6.3,-999.0,83,-99.99,,,0.00,Acu-Link.com,2013-04-21 11:29:00,
2013-04-21 07:44:00,46.0,38.9,30.26,East,90,3.7,-999.0,76,-99.99,,,0.00,Acu-Link.com,2013-04-21 11:44:00,
2013-04-21 07:59:00,49.6,39.5,30.27,NE,45,4.2,-999.0,68,-99.99,,,0.00,Acu-Link.com,2013-04-21 11:59:00,
2013-04-21 08:14:00,50.9,37.9,30.28,ENE,67,4.7,-999.0,61,-99.99,,,0.00,Acu-Link.com,2013-04-21 12:14:00,
2013-04-21 08:29:00,52.0,38.1,30.28,ESE,112,2.2,-999.0,59,-99.99,,,0.00,Acu-Link.com,2013-04-21 12:29:00,
2013-04-21 08:45:00,55.2,38.8,30.29,East,90,6.3,-999.0,54,-99.99,,,0.00,Acu-Link.com,2013-04-21 12:45:00,
2013-04-21 09:00:00,56.8,39.4,30.29,ESE,112,6.8,-999.0,52,-99.99,,,0.00,Acu-Link.com,2013-04-21 13:00:00,
2013-04-21 09:15:00,59.0,39.3,30.29,NE,45,2.7,-999.0,48,-99.99,,,0.00,Acu-Link.com,2013-04-21 13:15:00,
2013-04-21 09:30:00,60.4,40.1,30.29,East,90,4.7,-999.0,47,-99.99,,,0.00,Acu-Link.com,2013-04-21 13:30:00,
2013-04-21 09:45:00,59.2,39.0,30.30,NNE,22,5.8,-999.0,47,-99.99,,,0.00,Acu-Link.com,2013-04-21 13:45:00,
2013-04-21 10:00:00,59.4,38.6,30.30,ESE,112,6.3,-999.0,46,-99.99,,,0.00,Acu-Link.com,2013-04-21 14:00:00,
2013-04-21 10:15:00,59.4,38.6,30.30,ESE,112,8.3,-999.0,46,-99.99,,,0.00,Acu-Link.com,2013-04-21 14:15:00,
2013-04-21 10:30:00,61.2,39.1,30.30,ESE,112,7.8,-999.0,44,-99.99,,,0.00,Acu-Link.com,2013-04-21 14:30:00,
2013-04-21 10:45:00,61.7,39.6,30.30,ESE,112,3.2,-999.0,44,-99.99,,,0.00,Acu-Link.com,2013-04-21 14:45:00,
2013-04-21 11:01:00,61.3,39.8,30.30,East,90,4.7,-999.0,45,-99.99,,,0.00,Acu-Link.com,2013-04-21 15:01:00,
2013-04-21 11:16:00,62.2,41.7,30.30,NE,45,2.2,-999.0,47,-99.99,,,0.00,Acu-Link.com,2013-04-21 15:16:00,
2013-04-21 11:31:00,63.0,43.5,30.30,East,90,4.7,-999.0,49,-99.99,,,0.00,Acu-Link.com,2013-04-21 15:31:00,
2013-04-21 11:46:00,63.3,42.2,30.30,ESE,112,6.3,-999.0,46,-99.99,,,0.00,Acu-Link.com,2013-04-21 15:46:00,
2013-04-21 12:01:00,64.4,43.2,30.28,ESE,112,6.3,-999.0,46,-99.99,,,0.00,Acu-Link.com,2013-04-21 16:01:00,
2013-04-21 12:16:00,64.8,43.0,30.28,West,270,8.9,-999.0,45,-99.99,,,0.00,Acu-Link.com,2013-04-21 16:16:00,
2013-04-21 12:31:00,64.8,42.4,30.27,ESE,112,8.3,-999.0,44,-99.99,,,0.00,Acu-Link.com,2013-04-21 16:31:00,
2013-04-21 12:46:00,65.3,41.6,30.27,SSW,202,6.8,-999.0,42,-99.99,,,0.00,Acu-Link.com,2013-04-21 16:46:00,
2013-04-21 13:01:00,65.1,40.8,30.27,East,90,7.3,-999.0,41,-99.99,,,0.00,Acu-Link.com,2013-04-21 17:01:00,
2013-04-21 13:17:00,66.0,42.2,30.26,ENE,67,4.7,-999.0,42,-99.99,,,0.00,Acu-Link.com,2013-04-21 17:17:00,
2013-04-21 13:32:00,66.0,41.0,30.26,South,180,7.8,-999.0,40,-99.99,,,0.00,Acu-Link.com,2013-04-21 17:32:00,
2013-04-21 13:47:00,66.4,39.3,30.26,ENE,67,8.9,-999.0,37,-99.99,,,0.00,Acu-Link.com,2013-04-21 17:47:00,
2013-04-21 14:02:00,66.9,43.1,30.25,East,90,9.9,-999.0,42,-99.99,,,0.00,Acu-Link.com,2013-04-21 18:02:00,
2013-04-21 14:17:00,66.4,41.3,30.25,ENE,67,4.7,-999.0,40,-99.99,,,0.00,Acu-Link.com,2013-04-21 18:17:00,
2013-04-21 14:32:00,66.0,39.7,30.24,SSE,157,8.9,-999.0,38,-99.99,,,0.00,Acu-Link.com,2013-04-21 18:32:00,
2013-04-21 14:48:00,66.9,41.1,30.24,NNE,22,4.2,-999.0,39,-99.99,,,0.00,Acu-Link.com,2013-04-21 18:48:00,
2013-04-21 15:03:00,66.7,41.0,30.23,ESE,112,8.3,-999.0,39,-99.99,,,0.00,Acu-Link.com,2013-04-21 19:03:00,
2013-04-21 15:18:00,67.8,42.6,30.22,East,90,9.9,-999.0,40,-99.99,,,0.00,Acu-Link.com,2013-04-21 19:18:00,
2013-04-21 15:33:00,67.5,41.0,30.22,ENE,67,3.2,-999.0,38,-99.99,,,0.00,Acu-Link.com,2013-04-21 19:33:00,
2013-04-21 15:48:00,66.9,41.1,30.21,ENE,67,7.8,-999.0,39,-99.99,,,0.00,Acu-Link.com,2013-04-21 19:48:00,
2013-04-21 16:03:00,66.4,40.0,30.21,NE,45,4.2,-999.0,38,-99.99,,,0.00,Acu-Link.com,2013-04-21 20:03:00,
2013-04-21 16:18:00,66.6,40.9,30.21,NE,45,5.8,-999.0,39,-99.99,,,0.00,Acu-Link.com,2013-04-21 20:18:00,
2013-04-21 16:33:00,65.8,40.2,30.21,NNE,22,6.3,-999.0,39,-99.99,,,0.00,Acu-Link.com,2013-04-21 20:33:00,
2013-04-21 16:48:00,67.1,43.2,30.20,NE,45,6.8,-999.0,42,-99.99,,,0.00,Acu-Link.com,2013-04-21 20:48:00,
2013-04-21 17:04:00,65.8,41.4,30.21,ENE,67,7.3,-999.0,41,-99.99,,,0.00,Acu-Link.com,2013-04-21 21:04:00,
2013-04-21 17:19:00,65.1,41.4,30.21,NNE,22,5.8,-999.0,42,-99.99,,,0.00,Acu-Link.com,2013-04-21 21:19:00,
2013-04-21 17:34:00,64.6,42.2,30.20,NNW,337,4.7,-999.0,44,-99.99,,,0.00,Acu-Link.com,2013-04-21 21:34:00,
2013-04-21 17:49:00,64.2,41.8,30.20,WSW,247,8.9,-999.0,44,-99.99,,,0.00,Acu-Link.com,2013-04-21 21:49:00,
2013-04-21 18:04:00,63.0,41.9,30.21,ENE,67,5.8,-999.0,46,-99.99,,,0.00,Acu-Link.com,2013-04-21 22:04:00,
2013-04-21 18:19:00,62.8,42.3,30.20,East,90,3.7,-999.0,47,-99.99,,,0.00,Acu-Link.com,2013-04-21 22:19:00,
2013-04-21 18:34:00,62.4,43.0,30.21,ENE,67,5.8,-999.0,49,-99.99,,,0.00,Acu-Link.com,2013-04-21 22:34:00,
2013-04-21 18:49:00,62.1,42.7,30.21,SE,135,4.7,-999.0,49,-99.99,,,0.00,Acu-Link.com,2013-04-21 22:49:00,
2013-04-21 19:04:00,61.7,42.9,30.21,SSE,157,4.7,-999.0,50,-99.99,,,0.00,Acu-Link.com,2013-04-21 23:04:00,
2013-04-21 19:19:00,61.5,43.2,30.21,ESE,112,4.7,-999.0,51,-99.99,,,0.00,Acu-Link.com,2013-04-21 23:19:00,
2013-04-21 19:35:00,60.8,43.1,30.22,NE,45,4.7,-999.0,52,-99.99,,,0.00,Acu-Link.com,2013-04-21 23:35:00,
2013-04-21 19:50:00,59.7,43.0,30.22,ESE,112,3.2,-999.0,54,-99.99,,,0.00,Acu-Link.com,2013-04-21 23:50:00,
2013-04-21 20:05:00,58.6,42.5,30.23,ESE,112,2.7,-999.0,55,-99.99,,,0.00,Acu-Link.com,2013-04-22 00:05:00,
2013-04-21 20:20:00,57.7,42.6,30.23,SE,135,0.0,-999.0,57,-99.99,,,0.00,Acu-Link.com,2013-04-22 00:20:00,
2013-04-21 20:35:00,56.7,42.5,30.24,ENE,67,0.0,-999.0,59,-99.99,,,0.00,Acu-Link.com,2013-04-22 00:35:00,
2013-04-21 20:50:00,54.7,42.4,30.24,WNW,292,0.0,-999.0,63,-99.99,,,0.00,Acu-Link.com,2013-04-22 00:50:00,
2013-04-21 21:06:00,53.1,42.4,30.25,North,0,0.0,-999.0,67,-99.99,,,0.00,Acu-Link.com,2013-04-22 01:06:00,
2013-04-21 21:21:00,51.8,42.7,30.26,NE,45,0.0,-999.0,71,-99.99,,,0.00,Acu-Link.com,2013-04-22 01:21:00,
2013-04-21 21:36:00,51.1,43.1,30.26,ENE,67,0.0,-999.0,74,-99.99,,,0.00,Acu-Link.com,2013-04-22 01:36:00,
2013-04-21 21:51:00,51.1,44.1,30.27,ENE,67,0.0,-999.0,77,-99.99,,,0.00,Acu-Link.com,2013-04-22 01:51:00,
2013-04-21 22:06:00,51.6,45.0,30.27,SE,135,0.0,-999.0,78,-99.99,,,0.00,Acu-Link.com,2013-04-22 02:06:00,
2013-04-21 22:21:00,52.0,45.0,30.27,SE,135,0.0,-999.0,77,-99.99,,,0.00,Acu-Link.com,2013-04-22 02:21:00,
2013-04-21 22:36:00,52.3,44.6,30.27,SSE,157,0.0,-999.0,75,-99.99,,,0.00,Acu-Link.com,2013-04-22 02:36:00,
2013-04-21 22:51:00,52.3,44.6,30.27,South,180,0.0,-999.0,75,-99.99,,,0.00,Acu-Link.com,2013-04-22 02:51:00,
2013-04-21 23:06:00,52.3,44.6,30.27,East,90,0.0,-999.0,75,-99.99,,,0.00,Acu-Link.com,2013-04-22 03:06:00,
2013-04-21 23:22:00,52.0,44.3,30.27,SSW,202,0.0,-999.0,75,-99.99,,,0.00,Acu-Link.com,2013-04-22 03:22:00,
2013-04-21 23:37:00,51.6,43.9,30.26,East,90,0.0,-999.0,75,-99.99,,,0.00,Acu-Link.com,2013-04-22 03:37:00,
2013-04-21 23:52:00,50.7,43.8,30.26,SW,225,0.0,-999.0,77,-99.99,,,0.00,Acu-Link.com,2013-04-22 03:52:00,